Location: Austin
(30.3000°N, 97.7500°W)
Time: 13:08:32
(UTC-05:00)

Gblst 52 Del rocket - Pass Details

Date: 01 August 2025
Orbit: 804 x 1364 km, 51.5° (Epoch: 12 May)

Event Time Altitude Azimuth Distance (km) Brightness Sun altitude
Exits shadow 04:38:59 63° 264° (W) 920 4.1 -24.9°
Maximum altitude 04:39:45 73° 316° (NW) 874 4.1 -24.8°
Drops below altitude 10° 04:45:40 10° 41° (NE) 2,571 7.8 -23.9°
Sets 04:48:22 0° 43° (NE) 3,588 8.9 -23.4°
